Simultaneous Nadir Overpasses (SNOs) Predictions

Prediction of SNOs between AQUA and GOES-15 Satellite Orbit:

Table of predicted SNOs for the next 14.0 days since TLE Epoch: 1/4/2013
Index Date Time (AQUA) AQUA Lat,Lon GOES-15 Lat,Lon Distance(km) Time Diff (sec)
1 01/05/2013 10:20:05 -0.94,-131.32 -0.10,-135.30 452.79 80
2 01/05/2013 22:41:29 -0.18,-136.50 0.10,-135.26 141.95 80
3 01/07/2013 22:29:17 0.42,-133.54 0.10,-135.21 188.94 80
4 01/08/2013 10:50:33 0.64,-138.70 -0.10,-135.22 395.57 80
5 01/10/2013 10:38:21 0.00,-135.74 -0.10,-135.16 65.57 80
6 01/12/2013 10:26:08 -0.60,-132.77 -0.09,-135.09 264.25 80
7 01/12/2013 22:47:32 -0.50,-137.96 0.10,-135.04 331.78 80
8 01/14/2013 22:35:18 0.08,-134.99 0.10,-134.97 2.51 80
9 01/16/2013 22:23:05 0.74,-132.03 0.09,-134.90 327.94 80
10 01/17/2013 10:44:20 0.36,-137.18 -0.10,-134.92 255.90 80




NCC Satellite Simultaneous Nadir Overpasses (SNOs) Prediction Service
